Location: Innerarity Island Observatory
(30.3139°N, 87.4867°W)
Time: 21:19:05
(UTC-05:00)

JAS-2 - Visible Passes

Search period start: 22 October 2014 00:00
Search period end: 01 November 2014 00:00
Orbit: 801 x 1321 km, 98.5° (Epoch: 22 October)

Date Brightness Start Highest point End Pass type
(mag) Time Alt. Az. Time Alt. Az. Time Alt. Az.
22 Oct 12.2 05:14:41 10° NE 05:21:01 27° E 05:27:15 10° SSE visible
22 Oct 12.1 18:50:58 10° SW 18:55:24 24° W 19:00:15 10° NW visible
23 Oct 10.7 06:03:36 10° NNE 06:11:23 64° E 06:19:01 10° S visible
24 Oct 12.3 05:10:04 10° NE 05:16:12 25° E 05:22:12 10° SE visible
24 Oct 11.9 18:45:44 10° SSW 18:50:27 27° W 18:55:38 10° NW visible
25 Oct 10.8 05:58:51 10° NNE 06:06:36 60° E 06:14:08 10° S visible
26 Oct 12.4 05:05:29 10° NE 05:11:22 23° E 05:17:06 10° SE visible
26 Oct 11.8 18:40:32 10° SSW 18:45:30 29° W 18:51:00 10° NW visible
27 Oct 10.9 05:54:07 10° NNE 06:01:50 56° E 06:09:14 10° S visible
28 Oct 12.5 05:00:56 10° NE 05:06:32 21° E 05:11:58 10° SE visible
28 Oct 11.6 18:35:22 10° SSW 18:40:33 33° W 18:46:22 10° NNW visible
29 Oct 11.0 05:49:23 10° NNE 05:57:02 53° E 06:04:19 10° S visible
29 Oct 13.1 19:31:03 10° W 19:31:20 10° W 19:31:37 10° W visible
30 Oct 12.5 04:56:25 10° NE 05:01:42 19° E 05:06:47 10° SE visible
30 Oct 11.5 18:30:12 10° SSW 18:35:37 36° W 18:41:43 10° NNW visible
31 Oct 11.1 05:44:41 10° NNE 05:52:15 49° E 05:59:22 10° S visible
31 Oct 12.9 19:24:17 10° WSW 19:26:23 12° W 19:28:32 10° WNW visible
